This demonstration page uses our WeatherBlox Daily Observations layout. Learn more.

Left ArrowRight Arrow

38.20091, -84.87328

Hourly Observations for January 23, 2016

Temp ( °F °C ) Dew Point ( °F °C ) Humidity (%) Winds ( mph kmh ) Pressure ( in mb ) Visibility ( mi km ) Precip ( " mm )
12:29 am 00:29 Cloudy 23 -5 17 -8.3 78 78 N 12 19 30.00 1016 10 16 0.00 0.03
12:36 am 00:36 Cloudy 23 -5 17 -8.3 78 78 N 12 19 30.00 1016 10 16 0.00 0.03
12:53 am 00:53 Mostly Cloudy 23 -5 17 -8.3 78 78 N 10 17 29.96 1014 9 14 0.00 0.03
1:53 am 01:53 Cloudy 23 -5 17 -8.3 78 78 N 10 17 29.95 1014 10 16 0.00 0.00
2:23 am 02:23 Cloudy with Light Snow 22 -5.6 17 -8.3 82 82 N 9 15 30.00 1016 4 6 0.00 0.03
2:53 am 02:53 Cloudy with Light Snow 22 -5.6 17 -8.3 82 82 N 10 17 29.96 1015 3 5 0.00 0.03
3:53 am 03:53 Cloudy 22 -5.6 16 -8.9 78 78 N 7 11 29.96 1015 7 11 0.00 0.03
4:53 am 04:53 Cloudy with Light Snow 22 -5.6 16 -8.9 78 78 N 8 13 29.97 1015 8 13 0.00 0.03
5:53 am 05:53 Cloudy with Light Snow 22 -5.6 17 -8.3 82 82 NNW 6 9 29.99 1016 2 3 0.00 0.03
6:12 am 06:12 Cloudy with Light Snow 22 -5.6 17 -8.3 82 82 WNW 6 9 30.03 1017 5 8 0.00 0.03
6:53 am 06:53 Cloudy 23 -5 17 -8.3 78 78 NNW 6 9 30.01 1016 10 16 0.00 0.03
7:53 am 07:53 Cloudy 24 -4.4 17 -8.3 75 75 NNW 10 17 30.04 1017 10 16 0.00 0.00
8:53 am 08:53 Cloudy 24 -4.4 16 -8.9 71 71 NNW 12 19 30.06 1018 10 16 0.00 0.00
9:05 am 09:05 Cloudy 24 -4.4 16 -8.9 71 71 N 12 19 30.09 1019 10 16 0.00 0.00
9:53 am 09:53 Mostly Cloudy 25 -3.9 15 -9.4 66 66 NNW 14 22 30.07 1018 10 16 0.00 0.00
10:39 am 10:39 Mostly Cloudy 26 -3.3 15 -9.4 63 63 N 10 17 30.12 1020 10 16 0.00 0.00
10:53 am 10:53 Mostly Cloudy 26 -3.3 15 -9.4 63 63 N 12 19 30.09 1019 10 16 0.00 0.00
11:53 am 11:53 Cloudy 27 -2.8 15 -9.4 61 61 N 14 22 30.10 1019 10 16 0.00 0.00
12:53 pm 12:53 Cloudy 26 -3.3 14 -10 60 60 N 13 20 30.08 1019 10 16 0.00 0.00
1:53 pm 13:53 Mostly Cloudy 28 -2.2 15 -9.4 58 58 NNW 9 15 30.07 1018 10 16 0.00 0.00
2:18 pm 14:18 Partly Cloudy 28 -2.2 14 -10 56 56 NNW 9 15 30.09 1019 10 16 0.00 0.00
2:53 pm 14:53 Mostly Sunny 29 -1.7 14 -10 54 54 NNW 9 15 30.06 1018 10 16 0.00 0.00
3:53 pm 15:53 Mostly Sunny 30 -1.1 14 -10 51 51 NNW 12 19 30.08 1019 10 16 0.00 0.00
4:53 pm 16:53 Sunny 30 -1.1 14 -10 51 51 WNW 8 13 30.10 1019 10 16 0.00 0.00
5:53 pm 17:53 Clear 27 -2.8 13 -10.6 55 55 NW 5 7 30.11 1020 10 16 0.00 0.00
6:53 pm 18:53 Clear 23 -5 13 -10.6 65 65 WNW 6 9 30.14 1021 10 16 0.00 0.00
7:53 pm 19:53 Clear 23 -5 14 -10 68 68 Calm 30.15 1021 10 16 0.00 0.00
8:53 pm 20:53 Clear 20 -6.7 13 -10.6 74 74 NW 3 6 30.17 1022 10 16 0.00 0.00
9:53 pm 21:53 Clear 16 -8.9 11 -11.7 80 80 SSW 3 6 30.17 1022 10 16 0.00 0.00
10:53 pm 22:53 Clear 14 -10 10 -12.2 84 84 Calm 30.17 1022 8 13 0.00 0.00
11:53 pm 23:53 Clear 10 -12.2 6 -14.4 84 84 Calm 30.18 1022 7 11 0.00 0.00

Powered by AerisWeather